[[{"header":{"parameterUnit":"m.s-1","parameterCategory":1,"la1":30.2991,"la2":30.254,"lo1":-89.0895,"lo2":-89.0444,"dy":0.0017,"dx":0.0017,"nx":28,"ny":28,"refTime":"2025-07-13T03:00:00:Z","depth":0,"parameterNumber":2,"parameterNumberName":"U-component_of_WINDS"},"data":[0,0,0,0,0,0,0,0,0,0,0,0,0,0,0,0,0,0,0,0,0,0,0,0,0,0,0,0,0,0,0,0,0,0,0,0,0,0,0,0,0,0,0,0,0,0,0,0,0,0,0,0,0,0,0,0,0,0,0.9344,0.9344,0,0.937,0.9371,0.9371,0.9376,0.9376,0.9376,0.9376,0.9401,0.9401,0.9402,0,0,0,0,0,0,0,0,0,0,0,0,0,0.9295,0.9296,0.9344,0.9344,0.9345,0.937,0.9371,0.9371,0.9376,0.9376,0.9376,0.9376,0.94,0.9401,0.9402,0,0,0,0,0,0,0,0,0,0,0,0,0,0.9318,0.9296,0.9344,0.935,0.9351,0.937,0.9371,0.9371,0.9376,0.9376,0.9376,0.9375,0.94,0.9401,0.9402,0.9416,0,0,0.9406,0.9407,0,0,0,0,0,0,0,0,0.9317,0.932,0.9349,0.935,0.9351,0.937,0.9362,0.9386,0.9376,0.9367,0.9376,0.9375,0.939,0.9392,0.9398,0.9418,0.9419,0.9407,0.9407,0.9408,0.9408,0,0,0,0,0,0,0,0.9315,0.9319,0.9354,0.9349,0.9351,0.9351,0.9354,0.9367,0.938,0.9368,0.9368,0.9371,0.9391,0.9397,0.9399,0.9419,0.9406,0.9408,0.9408,0.9409,0.9449,0.9449,0,0,0,0,0,0,0.9313,0.9317,0.9353,0.9355,0.9333,0.9352,0.9355,0.9364,0.938,0.9382,0.9371,0.9371,0.9395,0.9397,0.94,0.9416,0.9408,0.9409,0.941,0.9449,0.9449,0.9449,0,0,0,0,0,0,0.9312,0.9316,0.9352,0.9336,0.9341,0.9353,0.9363,0.9365,0.9371,0.9383,0.9385,0.9375,0.9395,0.9398,0.9412,0.9417,0.941,0.9411,0.9448,0.9449,0.9449,0.9449,0,0,0,0,0,0,0.931,0.9315,0.9322,0.9336,0.9342,0.9365,0.9363,0.9365,0.9373,0.9373,0.9387,0.9389,0.9395,0.941,0.9413,0.9418,0.9412,0.9448,0.9449,0.9449,0.9448,0.9449,0.945,0,0,0,0,0,0.9308,0.9321,0.9322,0.9326,0.935,0.9366,0.9369,0.9376,0.9373,0.9379,0.9387,0.9388,0.9416,0.9411,0.9415,0.9421,0.9448,0.9448,0.9449,0.9448,0.9449,0.945,0,0,0,0,0,0,0.9306,0.9323,0.9325,0.9342,0.9352,0.9367,0.9374,0.9377,0.9387,0.9387,0.9394,0.9397,0.9411,0.9417,0.9412,0.9434,0.9431,0.9433,0.9429,0.943,0.9431,0.9429,0.9413,0,0,0,0,0,0.9307,0.9319,0.9333,0.9347,0.9352,0.9362,0.9369,0.9374,0.9384,0.9389,0.9397,0.9407,0.9417,0.9424,0.9435,0.9449,0.9451,0.9455,0.9455,0.9456,0.9457,0.9464,0.9465,0.9452,0.9452,0.9452,0,0,0.9311,0.9321,0.9328,0.9347,0.9355,0.9366,0.9366,0.9378,0.9386,0.939,0.9404,0.941,0.9421,0.9435,0.9442,0.9441,0.9461,0.9457,0.9457,0.9458,0.9464,0.9466,0.9467,0.9452,0.9452,0.9452,0,0,0.9322,0.9332,0.9344,0.9352,0.9365,0.9371,0.9374,0.9388,0.9392,0.9406,0.9409,0.9418,0.9436,0.9444,0.945,0.9462,0.9464,0.9465,0.9469,0.9475,0.9476,0.9477,0.948,0.9482,0.9466,0.9466,0.9466,0,0.9324,0.9342,0.9349,0.9361,0.9368,0.9373,0.9384,0.9392,0.9407,0.9411,0.941,0.9433,0.944,0.9456,0.9458,0.9464,0.9466,0.9464,0.9475,0.9476,0.9477,0.9481,0.9482,0.9466,0.9466,0.9466,0.9466,0,0.9343,0.9355,0.9363,0.9378,0.9386,0.9398,0.9406,0.9413,0.9416,0.9422,0.9435,0.9445,0.9456,0.946,0.9464,0.9475,0.9474,0.9474,0.9472,0.9479,0.9482,0.9483,0.9466,0.9466,0.9466,0.9466,0,0,0.9355,0.9372,0.9375,0.9381,0.9395,0.9404,0.9415,0.9427,0.9432,0.9442,0.945,0.9465,0.9465,0.9472,0.9476,0.9481,0.9489,0.948,0.9481,0.9481,0.9501,0.95,0.9502,0.949,0.949,0.949,0.95,0,0.9367,0.9387,0.9394,0.941,0.942,0.9424,0.9433,0.9442,0.9447,0.9456,0.9462,0.9472,0.9471,0.9475,0.9481,0.9487,0.9493,0.9486,0.9497,0.9497,0.9494,0.9504,0.9504,0.9512,0.9501,0.9501,0.9501,0,0.9384,0.9395,0.9412,0.9423,0.9428,0.9436,0.9447,0.9455,0.9464,0.9468,0.9475,0.9478,0.9488,0.9485,0.9498,0.9494,0.9498,0.9501,0.9502,0.9503,0.95,0.9504,0.9515,0.9516,0.9504,0.9503,0.9503,0,0.939,0.9408,0.942,0.9425,0.9439,0.9444,0.945,0.9459,0.9465,0.9474,0.9478,0.9488,0.9493,0.95,0.9505,0.9503,0.9517,0.9515,0.9519,0.9519,0.9522,0.9522,0.9533,0.9526,0.9526,0.9526,0.9526,0,0.9402,0.9413,0.9423,0.943,0.9441,0.9448,0.9458,0.9464,0.9472,0.948,0.9483,0.949,0.9497,0.9504,0.9508,0.9518,0.952,0.9523,0.9524,0.9522,0.9522,0.9525,0.9525,0.9526,0.9526,0.9526,0.9526,0,0.941,0.9417,0.9431,0.9442,0.9445,0.9453,0.9462,0.9469,0.9474,0.9484,0.9487,0.9494,0.9503,0.9509,0.9521,0.9523,0.9534,0.9535,0.9531,0.9531,0.9535,0.9534,0.9548,0.955,0.9542,0.9542,0.9542,0,0.9418,0.9426,0.9438,0.9443,0.9449,0.9459,0.9465,0.9471,0.9477,0.9487,0.9492,0.9502,0.951,0.9524,0.953,0.9538,0.9539,0.9543,0.954,0.9538,0.9538,0.9537,0.9538,0.9544,0.9544,0.9544,0.9544,0,0.943,0.9433,0.9442,0.9452,0.9459,0.9467,0.9475,0.948,0.9487,0.9493,0.9503,0.9509,0.952,0.9529,0.9538,0.9542,0.9544,0.9545,0.9546,0.9545,0.9542,0.9543,0.9531,0.9544,0.9544,0.9544,0.9544,0.9544,0.9438,0.9444,0.9453,0.9463,0.947,0.9477,0.9483,0.9489,0.9497,0.9507,0.951,0.9519,0.9527,0.9539,0.9544,0.9551,0.955,0.9552,0.9553,0.9553,0.9553,0.9541,0.9552,0.9552,0.9552,0.9552,0.9552,0,0.9449,0.9455,0.9464,0.9475,0.9482,0.9483,0.9491,0.9497,0.9506,0.9513,0.952,0.953,0.9538,0.9545,0.9553,0.9557,0.9558,0.9559,0.9559,0.9559,0.9553,0.9551,0.9558,0.9558,0.9558,0.9558,0.9558,0.9558,0.9456,0.9467,0.9471,0.9484,0.949,0.95,0.9504,0.951,0.9516,0.9527,0.9534,0.9538,0.9545,0.9553,0.956,0.9562,0.9564,0.9565,0.9567,0.9561,0.956,0.9559,0.9557,0.9566,0.9566,0.9572,0.9573,0.9573]},{"header":{"parameterUnit":"m.s-1","parameterCategory":1,"la1":30.2991,"la2":30.254,"lo1":-89.0895,"lo2":-89.0444,"dy":0.0017,"dx":0.0017,"nx":28,"ny":28,"refTime":"2025-07-13T03:00:00:Z","depth":0,"parameterNumber":3,"parameterNumberName":"V-component_of_WINDS"},"data":[0,0,0,0,0,0,0,0,0,0,0,0,0,0,0,0,0,0,0,0,0,0,0,0,0,0,0,0,0,0,0,0,0,0,0,0,0,0,0,0,0,0,0,0,0,0,0,0,0,0,0,0,0,0,0,0,0,0,4.8515,4.8514,0,4.8474,4.8474,4.8473,4.8407,4.8406,4.8404,4.8403,4.8362,4.8362,4.8362,0,0,0,0,0,0,0,0,0,0,0,0,0,4.8535,4.8535,4.8515,4.8514,4.8514,4.8474,4.8474,4.8473,4.8407,4.8406,4.8404,4.8403,4.8362,4.8362,4.8362,0,0,0,0,0,0,0,0,0,0,0,0,0,4.8514,4.8535,4.8515,4.8476,4.8472,4.8474,4.8474,4.8473,4.8407,4.8406,4.8404,4.8402,4.8362,4.8362,4.8362,4.8399,0,0,4.8362,4.8362,0,0,0,0,0,0,0,0,4.8515,4.8513,4.8482,4.8479,4.8474,4.8444,4.8466,4.8448,4.8408,4.8432,4.8403,4.8401,4.839,4.8388,4.8384,4.8397,4.8395,4.8362,4.8362,4.8362,4.8362,0,0,0,0,0,0,0,4.8517,4.8515,4.8499,4.8482,4.8477,4.8461,4.8456,4.8462,4.8422,4.843,4.8425,4.8421,4.8388,4.8385,4.8383,4.8394,4.8362,4.8362,4.8362,4.8362,4.8435,4.8436,0,0,0,0,0,0,4.8524,4.8516,4.85,4.8497,4.8491,4.8462,4.8456,4.8455,4.8422,4.8415,4.8423,4.8418,4.8385,4.8383,4.8381,4.8421,4.8362,4.8362,4.8362,4.8433,4.8435,4.8437,0,0,0,0,0,0,4.8525,4.8523,4.8502,4.8506,4.8502,4.8464,4.8463,4.8456,4.8452,4.8416,4.8409,4.8426,4.8384,4.8381,4.8395,4.8419,4.8362,4.8362,4.843,4.8433,4.8436,4.8503,0,0,0,0,0,0,4.8526,4.8524,4.8537,4.8506,4.8502,4.8516,4.8465,4.8456,4.8452,4.8446,4.8418,4.8411,4.8382,4.8395,4.8395,4.8418,4.8362,4.8428,4.8432,4.8435,4.8498,4.8507,4.8515,0,0,0,0,0,4.8526,4.8558,4.8538,4.8537,4.8518,4.8517,4.8515,4.848,4.8455,4.8468,4.8445,4.8412,4.8417,4.8397,4.8396,4.842,4.8426,4.8431,4.8435,4.8494,4.8506,4.8515,0,0,0,0,0,0,4.8592,4.8553,4.8531,4.8553,4.8539,4.8506,4.8521,4.8494,4.8487,4.8481,4.8439,4.8433,4.8452,4.8437,4.8416,4.8454,4.8417,4.8421,4.8462,4.8473,4.8481,4.8483,4.8362,0,0,0,0,0,4.8609,4.8612,4.8578,4.8601,4.8595,4.856,4.8558,4.8533,4.8517,4.8511,4.8489,4.8475,4.8473,4.8472,4.8468,4.8497,4.8489,4.8512,4.8521,4.8529,4.8532,4.8545,4.8555,4.8451,4.8451,4.8451,0,0,4.8644,4.8623,4.8628,4.8613,4.8599,4.8603,4.8555,4.8561,4.8564,4.8512,4.8523,4.8507,4.8488,4.8509,4.8517,4.8497,4.856,4.8534,4.854,4.854,4.8551,4.8561,4.8569,4.8454,4.8453,4.8453,0,0,4.871,4.8695,4.8711,4.8699,4.8679,4.8656,4.866,4.8632,4.8619,4.863,4.859,4.8593,4.8591,4.8579,4.8573,4.8635,4.8605,4.8636,4.868,4.8694,4.8702,4.8709,4.873,4.8738,4.864,4.864,4.864,0,4.8755,4.876,4.8724,4.8733,4.8727,4.8681,4.8698,4.8688,4.8668,4.8665,4.8644,4.864,4.8624,4.8641,4.8657,4.8654,4.8657,4.8638,4.8704,4.871,4.8716,4.8736,4.8744,4.8644,4.8643,4.8643,4.8643,0,4.8817,4.8821,4.8837,4.8819,4.8816,4.8829,4.8795,4.8796,4.8772,4.8751,4.8763,4.8742,4.8733,4.8736,4.8713,4.875,4.8738,4.8711,4.8673,4.8731,4.8748,4.8756,4.8649,4.8648,4.8647,4.8646,0,0,4.892,4.8883,4.8889,4.8881,4.8856,4.8858,4.8869,4.8861,4.8862,4.8851,4.8859,4.8859,4.8833,4.8826,4.8801,4.8813,4.8863,4.8784,4.8783,4.8799,4.8902,4.8922,4.8931,4.8844,4.8845,4.8846,4.8904,0,4.8979,4.8996,4.8964,4.8988,4.8991,4.8948,4.8958,4.8944,4.8925,4.8925,4.8904,4.8904,4.8872,4.8867,4.8877,4.8855,4.8883,4.8851,4.885,4.885,4.8854,4.8941,4.8961,4.9016,4.891,4.8912,4.8912,0,4.905,4.9042,4.9066,4.904,4.904,4.9049,4.9039,4.904,4.9024,4.9009,4.9002,4.8973,4.8982,4.8947,4.8958,4.8937,4.8935,4.8925,4.8926,4.8923,4.8884,4.8939,4.9033,4.904,4.8923,4.8922,4.8922,0,4.9121,4.9117,4.913,4.9125,4.9095,4.9102,4.9091,4.9072,4.9069,4.9061,4.9059,4.9052,4.9048,4.9043,4.9013,4.899,4.9028,4.899,4.9015,4.9016,4.9023,4.9023,4.9117,4.9026,4.9025,4.9025,4.9025,0,4.9189,4.9206,4.9162,4.917,4.9187,4.9152,4.917,4.9153,4.9138,4.9142,4.9106,4.911,4.9071,4.9072,4.9049,4.9061,4.906,4.9048,4.9041,4.905,4.9052,4.9047,4.9042,4.9027,4.9027,4.9027,4.9026,0,4.9271,4.9243,4.9255,4.9226,4.9219,4.9233,4.9209,4.9215,4.9195,4.9201,4.92,4.9168,4.9167,4.9137,4.913,4.9114,4.9136,4.9123,4.9142,4.9137,4.9163,4.9161,4.9256,4.9266,4.917,4.9171,4.9172,0,4.9315,4.9327,4.93,4.93,4.929,4.9291,4.9288,4.9254,4.9253,4.9235,4.9244,4.924,4.9235,4.9236,4.9212,4.9206,4.9191,4.9225,4.919,4.9199,4.919,4.9189,4.919,4.9232,4.9233,4.9234,4.9235,0,4.9397,4.9382,4.9379,4.9372,4.937,4.9362,4.9352,4.9355,4.9318,4.9318,4.9316,4.9313,4.9306,4.9302,4.9292,4.928,4.9251,4.9247,4.9252,4.926,4.927,4.9264,4.916,4.9244,4.9243,4.9243,4.9242,4.9242,4.946,4.9468,4.945,4.9448,4.9438,4.9429,4.9434,4.9415,4.9413,4.9404,4.9385,4.9387,4.9371,4.9354,4.9345,4.9345,4.9328,4.9336,4.9338,4.934,4.9345,4.9272,4.9344,4.9344,4.9343,4.9343,4.9343,0,4.9538,4.9525,4.9524,4.9511,4.951,4.9484,4.9472,4.9473,4.9475,4.9462,4.9458,4.9457,4.9454,4.943,4.9424,4.9429,4.9416,4.9429,4.9427,4.9424,4.9361,4.9356,4.9439,4.9439,4.9439,4.9439,4.9439,4.9439,4.9578,4.959,4.9574,4.9581,4.9567,4.9569,4.9564,4.9557,4.9546,4.9547,4.9544,4.9529,4.9512,4.9504,4.95,4.9493,4.9492,4.9509,4.9497,4.9438,4.9429,4.942,4.9415,4.9509,4.9509,4.956,4.9561,4.9561]}]]